Regional Weather Roundup
Issued by NWS

Home | Current Version | Previous Version | Text Only | Print | Product List | Glossary Off
Versions: 1 2 3 4 5 6 7 8 9 10 11 12 13 14 15 16 17 18 19 20 21 22 23 24 25 26 27 28 29 30 31 32 33 34 35 36 37 38 39 40 41 42 43 44 45 46 47 48 49 50

000
ASUS43 KMPX 290501
RWRMN
WEATHER ROUNDUP FOR MINNESOTA
NATIONAL WEATHER SERVICE TWIN CITIES/CHANHASSEN MN
1200 AM CDT WED MAR 29 2017


NOTE: "FAIR" INDICATES FEW OR NO CLOUDS BELOW 12,000 FEET WITH NO
SIGNIFICANT WEATHER AND/OR OBSTRUCTIONS TO VISIBILITY. N/A MEANS
CURRENT SKY AND/OR WEATHER CONDITIONS ARE NOT AVAILABLE.

MNZ060>063-068>070-290600-
   Twin Cities Metro

CITY           SKY/WX    TMP DP  RH WIND       PRES   REMARKS
TWIN CITIES    CLOUDY    51  31  46 NE5       30.19F
ST PAUL        CLOUDY    44  37  76 CALM      30.20F
CRYSTAL        CLOUDY    41  27  57 CALM      30.18F
BLAINE         CLOUDY    41  28  60 CALM      30.19F
LAKEVILLE      CLOUDY    39  36  87 CALM      30.18F
EDEN PRAIRIE   CLOUDY    47  31  53 NE6       30.17F
SOUTH ST PAUL  CLOUDY    44  34  68 CALM      30.19F
LAKE ELMO      FAIR      37  32  81 CALM      30.21S
$$
MNZ001>005-007-008-013>017-022>024-027-028-290600-
   Northwest Minnesota

CITY           SKY/WX    TMP DP  RH WIND       PRES   REMARKS
BEMIDJI        CLEAR     34  26  72 NE5       30.22S WCI  30
HALLOCK        CLOUDY    37  34  87 E6        30.22S
ROSEAU         CLOUDY    34  28  80 E5        30.25R WCI  30
WARROAD        MOCLDY    34  28  80 E3        30.26R
THIEF RVR FALL MOCLDY    40  31  70 E9        30.23S
CROOKSTON      PTCLDY    43  34  70 E7        30.22S
FOSSTON        CLEAR     37  28  70 E3        30.22S
DETROIT LAKES  CLOUDY    46  32  57 CALM      30.20F
MOORHEAD       CLOUDY    39  37  93 NW3       30.20F
PARK RAPIDS    CLEAR     41  26  55 CALM      30.20F
MAHNOMEN       FAIR      38  30  72 E6        30.20F
$$
MNZ006-009>011-018-025>026-290600-
   North Central Minnesota

CITY           SKY/WX    TMP DP  RH WIND       PRES   REMARKS
BAUDETTE       CLOUDY    36  26  67 E7        30.24F
FLAG ISLAND    PTCLDY    39  21  48 E6        30.26R
INTL FALLS     CLOUDY    37  24  59 E5        30.26S
WASKISH        PTCLDY    37  28  70 E3        30.24S
BIG FORK       PTCLDY    36  25  64 CALM      30.24S
LONGVILLE      PTCLDY    30  27  86 CALM      30.22R
GRAND RAPIDS   CLEAR     41  27  57 E3        30.25S
CRANE LAKE     CLEAR     25  23  93 CALM      30.29R
ORR            CLEAR     36  23  60 CALM      30.24R
COOK           PTCLDY    30  27  86 CALM      30.26R
WALKER         FAIR      38  26  60 CALM      30.22S
$$
MNZ012-019>021-037-290600-
   Northeast Minnesota

CITY           SKY/WX    TMP DP  RH WIND       PRES   REMARKS
DULUTH         CLEAR     37  30  75 E13       30.25S
ELY            CLEAR     34  25  69 E5        30.27S WCI  30
HIBBING        CLEAR     30  25  81 E3        30.24R
EVELETH        CLEAR     37  25  60 E5        30.26S
DULUTH HARBOR  CLEAR     37  34  87 NE15      30.29S
TWO HARBORS    CLEAR     39  27  60 NE8       30.27R
GRAND MARAIS     N/A     36  26  67 E3        30.33S
G MARAIS ARPRT CLEAR     28  19  69 N8        30.29F WCI  20
$$
MNZ029>031-032-039>041-046>048-054>057-064-290600-
   West Central Minnesota

CITY           SKY/WX    TMP DP  RH WIND       PRES   REMARKS
FERGUS FALLS   PTCLDY    48  36  61 NE6       30.21F
WHEATON        PTCLDY    43  37  81 CALM      30.20F
MORRIS         CLOUDY    39  36  87 NE6       30.16F
ALEXANDRIA     CLOUDY    43  33  68 CALM      30.19F
ELBOW LAKE     FAIR      40  39  95 CALM      30.19F
WADENA         PTCLDY    45  28  53 NE5       30.20S
GLENWOOD       CLOUDY    43  34  70 N5        30.19F
APPLETON       CLOUDY    41  36  81 NE5       30.17F
BENSON         CLOUDY    39  32  75 NE5       30.19F
ORTONVILLE     PTCLDY    45  37  76 NE7       30.17F
MADISON        CLOUDY    46  36  66 NE7       30.16F
WILLMAR        FAIR      43  34  70 E5        30.19F
$$
MNZ033>034-036-042>043-049>051-058-059-290600-
   Central Minnesota

CITY           SKY/WX    TMP DP  RH WIND       PRES   REMARKS
ST CLOUD       CLEAR     36  30  79 N3        30.19F
SAUK CENTRE    FAIR      38  32  78 CALM      30.19F
PAYNESVILLE    CLOUDY    37  32  82 CALM      30.19F
AITKIN         CLEAR     32  25  74 CALM      30.21R
PINE RIVER     CLOUDY    34  28  80 CALM      30.24S
BRAINERD       PTCLDY    36  29  75 CALM      30.21S
STAPLES        PTCLDY    43  28  56 CALM      30.20F
LONG PRAIRIE   FAIR      39  32  75 CALM      30.20F
LITTLE FALLS   CLEAR     36  30  80 CALM      30.20F
LITCHFIELD     PTCLDY    46  37  71 CALM      30.18F
BUFFALO        CLOUDY    38  31  74 CALM      30.19F
MAPLE LAKE     PTCLDY    37  35  92 CALM      30.19F
HUTCHINSON     CLOUDY    42  34  74 NE3       30.19F
$$
MNZ037-044-045-052-053-290600-
   East Central Minnesota

CITY           SKY/WX    TMP DP  RH WIND       PRES   REMARKS
PRINCETON      PTCLDY    34  28  80 CALM      30.20F
MORA           CLEAR     34  30  86 CALM      30.23R
CAMBRIDGE      CLEAR     37  27  65 CALM      30.19S
RUSH CITY      CLEAR     38  27  64 N3        30.21S
MOOSE LAKE     CLEAR     36  32  87 NE5       30.24R
CLOQUET        CLEAR     36  28  75 E7        30.25R
MCGREGOR       CLEAR     37  30  75 E7        30.23R
$$
MNZ071>073-080-081-089-090-097-098-290600-
   Southwest Minnesota

CITY           SKY/WX    TMP DP  RH WIND       PRES   REMARKS
MONTEVIDEO     CLOUDY    45  34  65 E5        30.17F
GRANITE FALLS  CLOUDY    48  33  55 NE6       30.18F
CANBY          CLOUDY    42  37  83 CALM      30.17F
MARSHALL       CLOUDY    40  35  83 CALM      30.16F
REDWOOD FALLS  CLOUDY    50  32  50 E6        30.16F
OLIVIA         CLOUDY    45  32  61 E3        30.16F
PIPESTONE      CLOUDY    39  32  75 CALM      30.14S
WINDOM         CLOUDY    39  36  87 E5        30.15F
WORTHINGTON    CLOUDY    40  36  86 NE6       30.15F
JACKSON        PTCLDY    41  36  81 E7        30.16R
TRACY          CLOUDY    45  37  73 CALM      30.16F
SLAYTON        PTCLDY    38  34  87 CALM      30.16F
$$
MNZ065>067-074>077-082>085-091>093-290600-
   South Central Minnesota

CITY           SKY/WX    TMP DP  RH WIND       PRES   REMARKS
MANKATO        CLOUDY    48  37  65 E5        30.17F
NEW ULM        CLOUDY    46  34  61 NE3       30.16F
ST JAMES       CLOUDY    45  36  70 CALM      30.17F
FAIRMONT       PTCLDY    43  38  82 E6        30.16F
GLENCOE        CLOUDY    41  35  79 CALM      30.17F
FARIBAULT      CLOUDY    37  36  93 CALM      30.18F
OWATONNA       CLOUDY    41  37  87 E3        30.17F
WASECA         PTCLDY    43  34  70 E6        30.18F
ALBERT LEA     CLOUDY    43  36  75 E3        30.16F
$$
MNZ078>079-086>088-094>096-290600-
   Southeast Minnesota

CITY           SKY/WX    TMP DP  RH WIND       PRES   REMARKS
ROCHESTER      CLOUDY    48  36  63 E7        30.17F
RED WING       CLOUDY    37  30  75 CALM      30.19F
STANTON        CLOUDY    39  35  86 CALM      30.17F
DODGE CENTER   CLOUDY    43  36  75 E3        30.17F
WINONA         CLOUDY    41  36  81 CALM      30.21S
AUSTIN         CLOUDY    43  36  75 NE3       30.16F
PRESTON        CLOUDY    44  34  68 CALM      30.18F
$$
ABBREVIATIONS USED IN REMARKS
   TC - TEMPERATURES IN CELSIUS
  WCI - WIND CHILL INDEX
   HX - HEAT INDEX
  VSB - VISIBILITY
$$



USA.gov is the U.S. government's official web portal to all federal, state and local government web resources and services.